iso_date,epoch_date,Year,Hour,Min,DOY,POS_DOY,Lat,Lon,BP,Ts,Ta,has_bp,has_ts,has_ta,BuoyID,Buoy_Type,Buoy_Owner,Logistics,Hemisphere
2018-08-10T19:00:28Z,1533927629,2018,19,0,222.792,222.792,57.088,-10.032,1017.5,13.97,-999.0,yes,yes,no,300234062952440,BD2GI,AOML,REYKJAFOSS,North
2018-08-10T19:59:31Z,1533931171,2018,20,0,222.833,222.833,57.105,-10.042,1017.8,14.01,-999.0,yes,yes,no,300234062952440,BD2GI,AOML,REYKJAFOSS,North
2018-08-10T21:00:00Z,1533934800,2018,21,0,222.875,222.875,57.12,-10.05,1018.2,14.01,-999.0,yes,yes,no,300234062952440,BD2GI,AOML,REYKJAFOSS,North
2018-08-10T22:00:28Z,1533938429,2018,22,0,222.917,222.917,57.135,-10.058,1018.7,13.99,-999.0,yes,yes,no,300234062952440,BD2GI,AOML,REYKJAFOSS,North
2018-08-10T22:59:31Z,1533941971,2018,23,0,222.958,222.958,57.148,-10.061,1018.7,13.97,-999.0,yes,yes,no,300234062952440,BD2GI,AOML,REYKJAFOSS,North
2018-08-11T00:00:00Z,1533945600,2018,0,0,223.0,223.0,57.158,-10.063,1018.5,13.94,-999.0,yes,yes,no,300234062952440,BD2GI,AOML,REYKJAFOSS,North
2018-08-11T01:00:28Z,1533949229,2018,1,0,223.042,223.042,57.167,-10.067,1018.2,13.94,-999.0,yes,yes,no,300234062952440,BD2GI,AOML,REYKJAFOSS,North
2018-08-11T01:59:31Z,1533952771,2018,2,0,223.083,223.083,57.175,-10.073,1017.6,13.93,-999.0,yes,yes,no,300234062952440,BD2GI,AOML,REYKJAFOSS,North
2018-08-11T03:00:00Z,1533956400,2018,3,0,223.125,223.125,57.185,-10.08,1017.3,13.91,-999.0,yes,yes,no,300234062952440,BD2GI,AOML,REYKJAFOSS,North
2018-08-11T04:00:28Z,1533960029,2018,4,0,223.167,223.167,57.196,-10.09,1016.8,13.9,-999.0,yes,yes,no,300234062952440,BD2GI,AOML,REYKJAFOSS,North
2018-08-11T04:59:31Z,1533963571,2018,5,0,223.208,223.208,57.208,-10.103,1016.2,13.9,-999.0,yes,yes,no,300234062952440,BD2GI,AOML,REYKJAFOSS,North
2018-08-11T06:00:00Z,1533967200,2018,6,0,223.25,223.25,57.222,-10.121,1016.1,13.88,-999.0,yes,yes,no,300234062952440,BD2GI,AOML,REYKJAFOSS,North
2018-08-11T07:00:28Z,1533970829,2018,7,0,223.292,223.292,57.239,-10.141,1015.8,13.89,-999.0,yes,yes,no,300234062952440,BD2GI,AOML,REYKJAFOSS,North
2018-08-11T07:59:31Z,1533974371,2018,8,0,223.333,223.333,57.259,-10.163,1015.6,13.89,-999.0,yes,yes,no,300234062952440,BD2GI,AOML,REYKJAFOSS,North
2018-08-11T09:00:00Z,1533978000,2018,9,0,223.375,223.375,57.277,-10.18,1015.2,13.89,-999.0,yes,yes,no,300234062952440,BD2GI,AOML,REYKJAFOSS,North
2018-08-11T10:00:28Z,1533981629,2018,10,0,223.417,223.417,57.293,-10.196,1015.1,13.9,-999.0,yes,yes,no,300234062952440,BD2GI,AOML,REYKJAFOSS,North
2018-08-11T10:59:31Z,1533985171,2018,11,0,223.458,223.458,57.311,-10.209,1014.7,13.9,-999.0,yes,yes,no,300234062952440,BD2GI,AOML,REYKJAFOSS,North
2018-08-11T12:00:00Z,1533988800,2018,12,0,223.5,223.5,57.328,-10.218,1014.2,13.91,-999.0,yes,yes,no,300234062952440,BD2GI,AOML,REYKJAFOSS,North
2018-08-11T13:00:28Z,1533992429,2018,13,0,223.542,223.542,57.342,-10.222,1013.6,13.93,-999.0,yes,yes,no,300234062952440,BD2GI,AOML,REYKJAFOSS,North
2018-08-11T13:59:31Z,1533995971,2018,14,0,223.583,223.583,57.354,-10.222,1012.7,13.94,-999.0,yes,yes,no,300234062952440,BD2GI,AOML,REYKJAFOSS,North
2018-08-11T15:00:00Z,1533999600,2018,15,0,223.625,223.625,57.361,-10.221,1012.0,13.97,-999.0,yes,yes,no,300234062952440,BD2GI,AOML,REYKJAFOSS,North
2018-08-11T16:00:28Z,1534003229,2018,16,0,223.667,223.667,57.367,-10.226,1011.2,13.99,-999.0,yes,yes,no,300234062952440,BD2GI,AOML,REYKJAFOSS,North
2018-08-11T16:59:31Z,1534006771,2018,17,0,223.708,223.708,57.376,-10.239,1010.5,13.98,-999.0,yes,yes,no,300234062952440,BD2GI,AOML,REYKJAFOSS,North
2018-08-11T18:00:00Z,1534010400,2018,18,0,223.75,223.75,57.389,-10.256,1010.1,13.98,-999.0,yes,yes,no,300234062952440,BD2GI,AOML,REYKJAFOSS,North
2018-08-11T19:00:28Z,1534014029,2018,19,0,223.792,223.792,57.404,-10.275,1009.6,13.97,-999.0,yes,yes,no,300234062952440,BD2GI,AOML,REYKJAFOSS,North
2018-08-11T19:59:31Z,1534017571,2018,20,0,223.833,223.833,57.422,-10.291,1009.3,13.94,-999.0,yes,yes,no,300234062952440,BD2GI,AOML,REYKJAFOSS,North
2018-08-11T21:00:00Z,1534021200,2018,21,0,223.875,223.875,57.438,-10.306,1009.0,13.92,-999.0,yes,yes,no,300234062952440,BD2GI,AOML,REYKJAFOSS,North
2018-08-11T22:00:28Z,1534024829,2018,22,0,223.917,223.917,57.455,-10.317,1008.5,13.9,-999.0,yes,yes,no,300234062952440,BD2GI,AOML,REYKJAFOSS,North
2018-08-11T22:59:31Z,1534028371,2018,23,0,223.958,223.958,57.47,-10.317,1008.3,13.9,-999.0,yes,yes,no,300234062952440,BD2GI,AOML,REYKJAFOSS,North
2018-08-12T00:00:00Z,1534032000,2018,0,0,224.0,224.0,57.482,-10.317,1008.0,13.91,-999.0,yes,yes,no,300234062952440,BD2GI,AOML,REYKJAFOSS,North
2018-08-12T01:00:28Z,1534035629,2018,1,0,224.042,224.042,57.491,-10.307,1007.7,13.91,-999.0,yes,yes,no,300234062952440,BD2GI,AOML,REYKJAFOSS,North
2018-08-12T01:59:31Z,1534039171,2018,2,0,224.083,224.083,57.498,-10.3,1007.1,13.91,-999.0,yes,yes,no,300234062952440,BD2GI,AOML,REYKJAFOSS,North
2018-08-12T03:00:00Z,1534042800,2018,3,0,224.125,224.125,57.505,-10.293,1006.9,13.91,-999.0,yes,yes,no,300234062952440,BD2GI,AOML,REYKJAFOSS,North
2018-08-12T04:00:28Z,1534046429,2018,4,0,224.167,224.167,57.511,-10.286,1006.5,13.92,-999.0,yes,yes,no,300234062952440,BD2GI,AOML,REYKJAFOSS,North
2018-08-12T04:59:31Z,1534049971,2018,5,0,224.208,224.208,57.518,-10.279,1006.4,13.92,-999.0,yes,yes,no,300234062952440,BD2GI,AOML,REYKJAFOSS,North
2018-08-12T06:00:00Z,1534053600,2018,6,0,224.25,224.25,57.526,-10.276,1006.5,13.92,-999.0,yes,yes,no,300234062952440,BD2GI,AOML,REYKJAFOSS,North
2018-08-12T07:00:28Z,1534057229,2018,7,0,224.292,224.292,57.538,-10.273,1006.4,13.92,-999.0,yes,yes,no,300234062952440,BD2GI,AOML,REYKJAFOSS,North
2018-08-12T07:59:31Z,1534060771,2018,8,0,224.333,224.333,57.549,-10.27,1006.8,13.92,-999.0,yes,yes,no,300234062952440,BD2GI,AOML,REYKJAFOSS,North
2018-08-12T09:00:00Z,1534064400,2018,9,0,224.375,224.375,57.561,-10.268,1006.8,13.92,-999.0,yes,yes,no,300234062952440,BD2GI,AOML,REYKJAFOSS,North
2018-08-12T10:00:28Z,1534068029,2018,10,0,224.417,224.417,57.572,-10.258,1007.0,13.93,-999.0,yes,yes,no,300234062952440,BD2GI,AOML,REYKJAFOSS,North
2018-08-12T10:59:31Z,1534071571,2018,11,0,224.458,224.458,57.581,-10.24,1007.0,13.93,-999.0,yes,yes,no,300234062952440,BD2GI,AOML,REYKJAFOSS,North
2018-08-12T12:00:00Z,1534075200,2018,12,0,224.5,224.5,57.585,-10.226,1007.0,13.94,-999.0,yes,yes,no,300234062952440,BD2GI,AOML,REYKJAFOSS,North
2018-08-12T13:00:28Z,1534078829,2018,13,0,224.542,224.542,57.584,-10.212,1007.1,13.96,-999.0,yes,yes,no,300234062952440,BD2GI,AOML,REYKJAFOSS,North
2018-08-12T13:59:31Z,1534082371,2018,14,0,224.583,224.583,57.584,-10.2,1007.0,14.01,-999.0,yes,yes,no,300234062952440,BD2GI,AOML,REYKJAFOSS,North
2018-08-12T15:00:00Z,1534086000,2018,15,0,224.625,224.625,57.587,-10.193,1006.8,14.02,-999.0,yes,yes,no,300234062952440,BD2GI,AOML,REYKJAFOSS,North
2018-08-12T16:00:28Z,1534089629,2018,16,0,224.667,224.667,57.593,-10.185,1006.3,14.05,-999.0,yes,yes,no,300234062952440,BD2GI,AOML,REYKJAFOSS,North
2018-08-12T16:59:31Z,1534093171,2018,17,0,224.708,224.708,57.604,-10.173,1006.2,14.08,-999.0,yes,yes,no,300234062952440,BD2GI,AOML,REYKJAFOSS,North
2018-08-12T18:00:00Z,1534096800,2018,18,0,224.75,224.75,57.616,-10.156,1006.2,14.06,-999.0,yes,yes,no,300234062952440,BD2GI,AOML,REYKJAFOSS,North
2018-08-12T19:00:28Z,1534100429,2018,19,0,224.792,224.792,57.628,-10.134,1005.7,14.05,-999.0,yes,yes,no,300234062952440,BD2GI,AOML,REYKJAFOSS,North
2018-08-12T19:59:31Z,1534103971,2018,20,0,224.833,224.833,57.639,-10.113,1006.1,14.04,-999.0,yes,yes,no,300234062952440,BD2GI,AOML,REYKJAFOSS,North
2018-08-12T21:00:00Z,1534107600,2018,21,0,224.875,224.875,57.647,-10.091,1006.2,14.04,-999.0,yes,yes,no,300234062952440,BD2GI,AOML,REYKJAFOSS,North
2018-08-12T22:00:28Z,1534111229,2018,22,0,224.917,224.917,57.647,-10.091,1006.1,14.03,-999.0,yes,yes,no,300234062952440,BD2GI,AOML,REYKJAFOSS,North
2018-08-12T22:59:31Z,1534114771,2018,23,0,224.958,224.958,57.654,-10.058,1005.8,14.03,-999.0,yes,yes,no,300234062952440,BD2GI,AOML,REYKJAFOSS,North
2018-08-13T00:00:00Z,1534118400,2018,0,0,225.0,225.0,57.654,-10.05,1005.8,14.03,-999.0,yes,yes,no,300234062952440,BD2GI,AOML,REYKJAFOSS,North
2018-08-13T01:00:28Z,1534122029,2018,1,0,225.042,225.042,57.654,-10.044,1005.6,14.03,-999.0,yes,yes,no,300234062952440,BD2GI,AOML,REYKJAFOSS,North
2018-08-13T01:59:31Z,1534125571,2018,2,0,225.083,225.083,57.657,-10.036,1005.4,14.03,-999.0,yes,yes,no,300234062952440,BD2GI,AOML,REYKJAFOSS,North
2018-08-13T03:00:00Z,1534129200,2018,3,0,225.125,225.125,57.663,-10.026,1005.1,14.03,-999.0,yes,yes,no,300234062952440,BD2GI,AOML,REYKJAFOSS,North
2018-08-13T04:00:28Z,1534132829,2018,4,0,225.167,225.167,57.671,-10.011,1004.6,14.03,-999.0,yes,yes,no,300234062952440,BD2GI,AOML,REYKJAFOSS,North
2018-08-13T04:59:31Z,1534136371,2018,5,0,225.208,225.208,57.678,-9.993,1004.5,14.03,-999.0,yes,yes,no,300234062952440,BD2GI,AOML,REYKJAFOSS,North
2018-08-13T06:00:00Z,1534140000,2018,6,0,225.25,225.25,57.684,-9.976,1004.5,14.03,-999.0,yes,yes,no,300234062952440,BD2GI,AOML,REYKJAFOSS,North
2018-08-13T07:00:28Z,1534143629,2018,7,0,225.292,225.292,57.691,-9.959,1004.8,14.04,-999.0,yes,yes,no,300234062952440,BD2GI,AOML,REYKJAFOSS,North
2018-08-13T07:59:31Z,1534147171,2018,8,0,225.333,225.333,57.699,-9.946,1005.1,14.05,-999.0,yes,yes,no,300234062952440,BD2GI,AOML,REYKJAFOSS,North
2018-08-13T09:00:00Z,1534150800,2018,9,0,225.375,225.375,57.707,-9.935,1005.5,14.07,-999.0,yes,yes,no,300234062952440,BD2GI,AOML,REYKJAFOSS,North
2018-08-13T10:00:28Z,1534154429,2018,10,0,225.417,225.417,57.715,-9.923,1005.9,14.09,-999.0,yes,yes,no,300234062952440,BD2GI,AOML,REYKJAFOSS,North
2018-08-13T10:59:31Z,1534157971,2018,11,0,225.458,225.458,57.722,-9.911,1006.2,14.11,-999.0,yes,yes,no,300234062952440,BD2GI,AOML,REYKJAFOSS,North
2018-08-13T12:00:00Z,1534161600,2018,12,0,225.5,225.5,57.726,-9.9,1006.6,14.15,-999.0,yes,yes,no,300234062952440,BD2GI,AOML,REYKJAFOSS,North
2018-08-13T13:00:28Z,1534165229,2018,13,0,225.542,225.542,57.731,-9.887,1006.9,14.17,-999.0,yes,yes,no,300234062952440,BD2GI,AOML,REYKJAFOSS,North
2018-08-13T13:59:31Z,1534168771,2018,14,0,225.583,225.583,57.731,-9.879,1007.0,14.17,-999.0,yes,yes,no,300234062952440,BD2GI,AOML,REYKJAFOSS,North
2018-08-13T15:00:00Z,1534172400,2018,15,0,225.625,225.625,57.732,-9.867,1006.9,14.19,-999.0,yes,yes,no,300234062952440,BD2GI,AOML,REYKJAFOSS,North
2018-08-13T16:00:28Z,1534176029,2018,16,0,225.667,225.667,57.732,-9.859,1006.9,14.2,-999.0,yes,yes,no,300234062952440,BD2GI,AOML,REYKJAFOSS,North
2018-08-13T16:59:31Z,1534179571,2018,17,0,225.708,225.708,57.731,-9.857,1006.7,14.18,-999.0,yes,yes,no,300234062952440,BD2GI,AOML,REYKJAFOSS,North
2018-08-13T18:00:00Z,1534183200,2018,18,0,225.75,225.75,57.735,-9.858,1006.6,14.17,-999.0,yes,yes,no,300234062952440,BD2GI,AOML,REYKJAFOSS,North
2018-08-13T19:00:28Z,1534186829,2018,19,0,225.792,225.792,57.744,-9.858,1006.5,14.17,-999.0,yes,yes,no,300234062952440,BD2GI,AOML,REYKJAFOSS,North
2018-08-13T19:59:31Z,1534190371,2018,20,0,225.833,225.833,57.758,-9.853,1006.7,14.16,-999.0,yes,yes,no,300234062952440,BD2GI,AOML,REYKJAFOSS,North
2018-08-13T21:00:00Z,1534194000,2018,21,0,225.875,225.875,57.773,-9.847,1006.4,14.15,-999.0,yes,yes,no,300234062952440,BD2GI,AOML,REYKJAFOSS,North
2018-08-13T22:00:28Z,1534197629,2018,22,0,225.917,225.917,57.784,-9.837,1006.1,14.15,-999.0,yes,yes,no,300234062952440,BD2GI,AOML,REYKJAFOSS,North
2018-08-13T22:59:31Z,1534201171,2018,23,0,225.958,225.958,57.793,-9.829,1006.2,14.14,-999.0,yes,yes,no,300234062952440,BD2GI,AOML,REYKJAFOSS,North
2018-08-14T00:00:00Z,1534204800,2018,0,0,226.0,226.0,57.798,-9.819,1006.4,14.14,-999.0,yes,yes,no,300234062952440,BD2GI,AOML,REYKJAFOSS,North
2018-08-14T01:00:28Z,1534208429,2018,1,0,226.042,226.042,57.799,-9.811,1006.6,14.13,-999.0,yes,yes,no,300234062952440,BD2GI,AOML,REYKJAFOSS,North
2018-08-14T01:59:31Z,1534211971,2018,2,0,226.083,226.083,57.795,-9.805,1006.4,14.12,-999.0,yes,yes,no,300234062952440,BD2GI,AOML,REYKJAFOSS,North
2018-08-14T03:00:00Z,1534215600,2018,3,0,226.125,226.125,57.792,-9.804,1006.0,14.11,-999.0,yes,yes,no,300234062952440,BD2GI,AOML,REYKJAFOSS,North
2018-08-14T04:00:28Z,1534219229,2018,4,0,226.167,226.167,57.789,-9.803,1005.5,14.1,-999.0,yes,yes,no,300234062952440,BD2GI,AOML,REYKJAFOSS,North
2018-08-14T04:59:31Z,1534222771,2018,5,0,226.208,226.208,57.787,-9.803,1005.2,14.1,-999.0,yes,yes,no,300234062952440,BD2GI,AOML,REYKJAFOSS,North
2018-08-14T06:00:00Z,1534226400,2018,6,0,226.25,226.25,57.787,-9.809,1005.2,14.1,-999.0,yes,yes,no,300234062952440,BD2GI,AOML,REYKJAFOSS,North
2018-08-14T07:00:28Z,1534230029,2018,7,0,226.292,226.292,57.793,-9.817,1005.0,14.09,-999.0,yes,yes,no,300234062952440,BD2GI,AOML,REYKJAFOSS,North
2018-08-14T07:59:31Z,1534233571,2018,8,0,226.333,226.333,57.804,-9.823,1004.6,14.09,-999.0,yes,yes,no,300234062952440,BD2GI,AOML,REYKJAFOSS,North
2018-08-14T09:00:00Z,1534237200,2018,9,0,226.375,226.375,57.817,-9.83,1004.5,14.09,-999.0,yes,yes,no,300234062952440,BD2GI,AOML,REYKJAFOSS,North
2018-08-14T10:00:28Z,1534240829,2018,10,0,226.417,226.417,57.831,-9.833,1004.4,14.12,-999.0,yes,yes,no,300234062952440,BD2GI,AOML,REYKJAFOSS,North
2018-08-14T10:59:31Z,1534244371,2018,11,0,226.458,226.458,57.845,-9.831,1004.6,14.25,-999.0,yes,yes,no,300234062952440,BD2GI,AOML,REYKJAFOSS,North
2018-08-14T12:00:00Z,1534248000,2018,12,0,226.5,226.5,57.855,-9.829,1004.9,14.41,-999.0,yes,yes,no,300234062952440,BD2GI,AOML,REYKJAFOSS,North
2018-08-14T13:00:28Z,1534251629,2018,13,0,226.542,226.542,57.86,-9.826,1005.5,14.52,-999.0,yes,yes,no,300234062952440,BD2GI,AOML,REYKJAFOSS,North
2018-08-14T13:59:31Z,1534255171,2018,14,0,226.583,226.583,57.863,-9.823,1005.8,14.22,-999.0,yes,yes,no,300234062952440,BD2GI,AOML,REYKJAFOSS,North
2018-08-14T15:00:00Z,1534258800,2018,15,0,226.625,226.625,57.861,-9.821,1006.0,14.21,-999.0,yes,yes,no,300234062952440,BD2GI,AOML,REYKJAFOSS,North
2018-08-14T16:00:28Z,1534262429,2018,16,0,226.667,226.667,57.856,-9.822,1006.3,14.16,-999.0,yes,yes,no,300234062952440,BD2GI,AOML,REYKJAFOSS,North
2018-08-14T16:59:31Z,1534265971,2018,17,0,226.708,226.708,57.853,-9.825,1006.3,14.15,-999.0,yes,yes,no,300234062952440,BD2GI,AOML,REYKJAFOSS,North
2018-08-14T18:00:00Z,1534269600,2018,18,0,226.75,226.75,57.852,-9.834,1006.0,14.14,-999.0,yes,yes,no,300234062952440,BD2GI,AOML,REYKJAFOSS,North
2018-08-14T19:00:28Z,1534273229,2018,19,0,226.792,226.792,57.856,-9.844,1005.8,14.12,-999.0,yes,yes,no,300234062952440,BD2GI,AOML,REYKJAFOSS,North
2018-08-14T19:59:31Z,1534276771,2018,20,0,226.833,226.833,57.862,-9.856,1005.4,14.11,-999.0,yes,yes,no,300234062952440,BD2GI,AOML,REYKJAFOSS,North
2018-08-14T21:00:00Z,1534280400,2018,21,0,226.875,226.875,57.872,-9.866,1005.2,14.11,-999.0,yes,yes,no,300234062952440,BD2GI,AOML,REYKJAFOSS,North
2018-08-14T22:00:28Z,1534284029,2018,22,0,226.917,226.917,57.883,-9.876,1004.4,14.09,-999.0,yes,yes,no,300234062952440,BD2GI,AOML,REYKJAFOSS,North
2018-08-14T22:59:31Z,1534287571,2018,23,0,226.958,226.958,57.893,-9.882,1004.0,14.09,-999.0,yes,yes,no,300234062952440,BD2GI,AOML,REYKJAFOSS,North
2018-08-15T00:00:00Z,1534291200,2018,0,0,227.0,227.0,57.9,-9.887,1003.7,14.08,-999.0,yes,yes,no,300234062952440,BD2GI,AOML,REYKJAFOSS,North
2018-08-15T01:00:28Z,1534294829,2018,1,0,227.042,227.042,57.904,-9.89,1003.3,14.08,-999.0,yes,yes,no,300234062952440,BD2GI,AOML,REYKJAFOSS,North
2018-08-15T01:59:31Z,1534298371,2018,2,0,227.083,227.083,57.905,-9.892,1002.6,14.08,-999.0,yes,yes,no,300234062952440,BD2GI,AOML,REYKJAFOSS,North
2018-08-15T03:00:00Z,1534302000,2018,3,0,227.125,227.125,57.902,-9.893,1002.1,14.07,-999.0,yes,yes,no,300234062952440,BD2GI,AOML,REYKJAFOSS,North
2018-08-15T04:00:28Z,1534305629,2018,4,0,227.167,227.167,57.897,-9.894,1001.7,14.06,-999.0,yes,yes,no,300234062952440,BD2GI,AOML,REYKJAFOSS,North
2018-08-15T04:59:31Z,1534309171,2018,5,0,227.208,227.208,57.889,-9.898,1001.3,14.05,-999.0,yes,yes,no,300234062952440,BD2GI,AOML,REYKJAFOSS,North
2018-08-15T06:00:00Z,1534312800,2018,6,0,227.25,227.25,57.882,-9.91,1001.1,14.04,-999.0,yes,yes,no,300234062952440,BD2GI,AOML,REYKJAFOSS,North
2018-08-15T07:00:28Z,1534316429,2018,7,0,227.292,227.292,57.88,-9.925,1000.5,14.04,-999.0,yes,yes,no,300234062952440,BD2GI,AOML,REYKJAFOSS,North
2018-08-15T07:59:31Z,1534319971,2018,8,0,227.333,227.333,57.881,-9.943,1000.0,14.03,-999.0,yes,yes,no,300234062952440,BD2GI,AOML,REYKJAFOSS,North
2018-08-15T09:00:00Z,1534323600,2018,9,0,227.375,227.375,57.887,-9.962,999.0,14.02,-999.0,yes,yes,no,300234062952440,BD2GI,AOML,REYKJAFOSS,North
2018-08-15T10:00:28Z,1534327229,2018,10,0,227.417,227.417,57.898,-9.977,998.4,14.01,-999.0,yes,yes,no,300234062952440,BD2GI,AOML,REYKJAFOSS,North
2018-08-15T10:59:31Z,1534330771,2018,11,0,227.458,227.458,57.909,-9.986,997.6,14.01,-999.0,yes,yes,no,300234062952440,BD2GI,AOML,REYKJAFOSS,North
2018-08-15T12:00:00Z,1534334400,2018,12,0,227.5,227.5,57.918,-9.99,996.9,14.0,-999.0,yes,yes,no,300234062952440,BD2GI,AOML,REYKJAFOSS,North
2018-08-15T13:00:28Z,1534338029,2018,13,0,227.542,227.542,57.922,-9.988,997.0,13.99,-999.0,yes,yes,no,300234062952440,BD2GI,AOML,REYKJAFOSS,North
2018-08-15T13:59:31Z,1534341571,2018,14,0,227.583,227.583,57.922,-9.987,996.8,14.0,-999.0,yes,yes,no,300234062952440,BD2GI,AOML,REYKJAFOSS,North
2018-08-15T15:00:00Z,1534345200,2018,15,0,227.625,227.625,57.915,-9.981,996.7,14.0,-999.0,yes,yes,no,300234062952440,BD2GI,AOML,REYKJAFOSS,North
2018-08-15T16:00:28Z,1534348829,2018,16,0,227.667,227.667,57.905,-9.982,997.1,14.01,-999.0,yes,yes,no,300234062952440,BD2GI,AOML,REYKJAFOSS,North
2018-08-15T16:59:31Z,1534352371,2018,17,0,227.708,227.708,57.894,-9.989,996.9,14.0,-999.0,yes,yes,no,300234062952440,BD2GI,AOML,REYKJAFOSS,North
2018-08-15T18:00:00Z,1534356000,2018,18,0,227.75,227.75,57.885,-10.004,997.1,14.0,-999.0,yes,yes,no,300234062952440,BD2GI,AOML,REYKJAFOSS,North
2018-08-15T19:00:28Z,1534359629,2018,19,0,227.792,227.792,57.878,-10.023,997.0,13.99,-999.0,yes,yes,no,300234062952440,BD2GI,AOML,REYKJAFOSS,North
2018-08-15T19:59:31Z,1534363171,2018,20,0,227.833,227.833,57.875,-10.043,996.9,13.97,-999.0,yes,yes,no,300234062952440,BD2GI,AOML,REYKJAFOSS,North
2018-08-15T21:00:00Z,1534366800,2018,21,0,227.875,227.875,57.877,-10.063,996.8,13.96,-999.0,yes,yes,no,300234062952440,BD2GI,AOML,REYKJAFOSS,North
2018-08-15T22:00:28Z,1534370429,2018,22,0,227.917,227.917,57.881,-10.079,996.6,13.95,-999.0,yes,yes,no,300234062952440,BD2GI,AOML,REYKJAFOSS,North
2018-08-15T22:59:31Z,1534373971,2018,23,0,227.958,227.958,57.881,-10.079,996.6,13.95,-999.0,yes,yes,no,300234062952440,BD2GI,AOML,REYKJAFOSS,North
2018-08-16T00:00:00Z,1534377600,2018,0,0,228.0,228.0,57.892,-10.1,996.6,13.94,-999.0,yes,yes,no,300234062952440,BD2GI,AOML,REYKJAFOSS,North
2018-08-16T01:00:28Z,1534381229,2018,1,0,228.042,228.042,57.892,-10.1,996.2,13.94,-999.0,yes,yes,no,300234062952440,BD2GI,AOML,REYKJAFOSS,North
2018-08-16T01:59:31Z,1534384771,2018,2,0,228.083,228.083,57.89,-10.101,996.0,13.93,-999.0,yes,yes,no,300234062952440,BD2GI,AOML,REYKJAFOSS,North
2018-08-16T03:00:00Z,1534388400,2018,3,0,228.125,228.125,57.879,-10.103,996.1,13.93,-999.0,yes,yes,no,300234062952440,BD2GI,AOML,REYKJAFOSS,North
2018-08-16T04:00:28Z,1534392029,2018,4,0,228.167,228.167,57.866,-10.111,996.2,13.93,-999.0,yes,yes,no,300234062952440,BD2GI,AOML,REYKJAFOSS,North
2018-08-16T04:59:31Z,1534395571,2018,5,0,228.208,228.208,57.853,-10.116,996.6,13.92,-999.0,yes,yes,no,300234062952440,BD2GI,AOML,REYKJAFOSS,North
2018-08-16T06:00:00Z,1534399200,2018,6,0,228.25,228.25,57.839,-10.125,997.5,13.92,-999.0,yes,yes,no,300234062952440,BD2GI,AOML,REYKJAFOSS,North
2018-08-16T07:00:28Z,1534402829,2018,7,0,228.292,228.292,57.825,-10.138,998.3,13.92,-999.0,yes,yes,no,300234062952440,BD2GI,AOML,REYKJAFOSS,North
2018-08-16T07:59:31Z,1534406371,2018,8,0,228.333,228.333,57.825,-10.138,999.0,13.92,-999.0,yes,yes,no,300234062952440,BD2GI,AOML,REYKJAFOSS,North
2018-08-16T09:00:00Z,1534410000,2018,9,0,228.375,228.375,57.825,-10.138,999.4,13.93,-999.0,yes,yes,no,300234062952440,BD2GI,AOML,REYKJAFOSS,North
2018-08-16T10:00:28Z,1534413629,2018,10,0,228.417,228.417,57.805,-10.19,1000.0,13.94,-999.0,yes,yes,no,300234062952440,BD2GI,AOML,REYKJAFOSS,North
2018-08-16T10:59:31Z,1534417171,2018,11,0,228.458,228.458,57.805,-10.2,1000.6,13.94,-999.0,yes,yes,no,300234062952440,BD2GI,AOML,REYKJAFOSS,North
2018-08-16T12:00:00Z,1534420800,2018,12,0,228.5,228.5,57.806,-10.203,1001.6,13.96,-999.0,yes,yes,no,300234062952440,BD2GI,AOML,REYKJAFOSS,North
2018-08-16T13:00:28Z,1534424429,2018,13,0,228.542,228.542,57.805,-10.2,1002.4,13.97,-999.0,yes,yes,no,300234062952440,BD2GI,AOML,REYKJAFOSS,North
2018-08-16T13:59:31Z,1534427971,2018,14,0,228.583,228.583,57.801,-10.192,1002.9,13.98,-999.0,yes,yes,no,300234062952440,BD2GI,AOML,REYKJAFOSS,North
2018-08-16T15:00:00Z,1534431600,2018,15,0,228.625,228.625,57.79,-10.182,1003.5,14.0,-999.0,yes,yes,no,300234062952440,BD2GI,AOML,REYKJAFOSS,North
2018-08-16T16:00:28Z,1534435229,2018,16,0,228.667,228.667,57.776,-10.172,1003.9,13.99,-999.0,yes,yes,no,300234062952440,BD2GI,AOML,REYKJAFOSS,North
2018-08-16T16:59:31Z,1534438771,2018,17,0,228.708,228.708,57.776,-10.172,1003.9,14.0,-999.0,yes,yes,no,300234062952440,BD2GI,AOML,REYKJAFOSS,North
2018-08-16T18:00:00Z,1534442400,2018,18,0,228.75,228.75,57.743,-10.163,1004.1,13.99,-999.0,yes,yes,no,300234062952440,BD2GI,AOML,REYKJAFOSS,North
2018-08-16T19:00:28Z,1534446029,2018,19,0,228.792,228.792,57.729,-10.164,1004.3,13.99,-999.0,yes,yes,no,300234062952440,BD2GI,AOML,REYKJAFOSS,North
2018-08-16T19:59:31Z,1534449571,2018,20,0,228.833,228.833,57.719,-10.166,1004.7,13.97,-999.0,yes,yes,no,300234062952440,BD2GI,AOML,REYKJAFOSS,North
2018-08-16T21:00:00Z,1534453200,2018,21,0,228.875,228.875,57.715,-10.172,1005.3,13.97,-999.0,yes,yes,no,300234062952440,BD2GI,AOML,REYKJAFOSS,North
2018-08-16T22:00:28Z,1534456829,2018,22,0,228.917,228.917,57.715,-10.173,1005.4,13.96,-999.0,yes,yes,no,300234062952440,BD2GI,AOML,REYKJAFOSS,North
2018-08-16T22:59:31Z,1534460371,2018,23,0,228.958,228.958,57.717,-10.168,1005.5,13.95,-999.0,yes,yes,no,300234062952440,BD2GI,AOML,REYKJAFOSS,North
2018-08-17T00:00:00Z,1534464000,2018,0,0,229.0,229.0,57.719,-10.154,1005.5,13.94,-999.0,yes,yes,no,300234062952440,BD2GI,AOML,REYKJAFOSS,North
2018-08-17T01:00:28Z,1534467629,2018,1,0,229.042,229.042,57.718,-10.136,1005.3,13.94,-999.0,yes,yes,no,300234062952440,BD2GI,AOML,REYKJAFOSS,North
2018-08-17T01:59:31Z,1534471171,2018,2,0,229.083,229.083,57.712,-10.116,1005.3,13.94,-999.0,yes,yes,no,300234062952440,BD2GI,AOML,REYKJAFOSS,North
2018-08-17T03:00:00Z,1534474800,2018,3,0,229.125,229.125,57.705,-10.099,1005.0,13.93,-999.0,yes,yes,no,300234062952440,BD2GI,AOML,REYKJAFOSS,North
2018-08-17T04:00:28Z,1534478429,2018,4,0,229.167,229.167,57.696,-10.081,1004.5,13.93,-999.0,yes,yes,no,300234062952440,BD2GI,AOML,REYKJAFOSS,North
2018-08-17T04:59:31Z,1534481971,2018,5,0,229.208,229.208,57.685,-10.066,1004.1,13.92,-999.0,yes,yes,no,300234062952440,BD2GI,AOML,REYKJAFOSS,North
2018-08-17T06:00:00Z,1534485600,2018,6,0,229.25,229.25,57.675,-10.058,1003.5,13.92,-999.0,yes,yes,no,300234062952440,BD2GI,AOML,REYKJAFOSS,North
2018-08-17T07:00:28Z,1534489229,2018,7,0,229.292,229.292,57.668,-10.051,1002.8,13.92,-999.0,yes,yes,no,300234062952440,BD2GI,AOML,REYKJAFOSS,North
2018-08-17T07:59:31Z,1534492771,2018,8,0,229.333,229.333,57.666,-10.045,1002.0,13.92,-999.0,yes,yes,no,300234062952440,BD2GI,AOML,REYKJAFOSS,North
2018-08-17T09:00:00Z,1534496400,2018,9,0,229.375,229.375,57.669,-10.036,1001.1,13.92,-999.0,yes,yes,no,300234062952440,BD2GI,AOML,REYKJAFOSS,North
2018-08-17T10:00:28Z,1534500029,2018,10,0,229.417,229.417,57.675,-10.023,1000.3,13.93,-999.0,yes,yes,no,300234062952440,BD2GI,AOML,REYKJAFOSS,North
2018-08-17T10:59:31Z,1534503571,2018,11,0,229.458,229.458,57.681,-10.006,1000.3,13.93,-999.0,yes,yes,no,300234062952440,BD2GI,AOML,REYKJAFOSS,North
2018-08-17T12:00:00Z,1534507200,2018,12,0,229.5,229.5,57.685,-9.981,1000.5,13.94,-999.0,yes,yes,no,300234062952440,BD2GI,AOML,REYKJAFOSS,North
2018-08-17T13:00:28Z,1534510829,2018,13,0,229.542,229.542,57.687,-9.959,1000.8,13.95,-999.0,yes,yes,no,300234062952440,BD2GI,AOML,REYKJAFOSS,North